TimeEDT,TemperatureF,Dew PointF,Humidity,Sea Level PressureIn,VisibilityMPH,Wind Direction,Wind SpeedMPH,Gust SpeedMPH,PrecipitationIn,Events,Conditions,WindDirDegrees,DateUTC
12:53 AM,55.9,55.0,97,29.96,10.0,NE,5.8,-,N/A,,Overcast,40,2013-05-07 04:53:00
1:53 AM,55.9,55.0,97,29.95,10.0,NE,5.8,-,0.01,,Overcast,50,2013-05-07 05:53:00
2:53 AM,55.0,54.0,96,29.93,10.0,NNE,5.8,-,0.00,,Overcast,30,2013-05-07 06:53:00
3:53 AM,55.0,54.0,96,29.94,10.0,NE,6.9,-,N/A,,Overcast,50,2013-05-07 07:53:00
4:53 AM,55.0,54.0,96,29.94,10.0,NE,5.8,-,N/A,,Overcast,50,2013-05-07 08:53:00
5:53 AM,55.0,54.0,96,29.96,10.0,NE,4.6,-,N/A,,Overcast,50,2013-05-07 09:53:00
6:53 AM,54.0,53.1,97,29.96,10.0,NNE,3.5,-,N/A,,Overcast,30,2013-05-07 10:53:00
7:53 AM,55.0,54.0,96,29.98,10.0,NNE,3.5,-,N/A,,Overcast,20,2013-05-07 11:53:00
8:45 AM,55.4,53.6,94,29.99,10.0,NNE,6.9,-,N/A,,Overcast,20,2013-05-07 12:45:00
8:53 AM,57.0,55.0,93,29.98,10.0,North,4.6,-,N/A,,Overcast,360,2013-05-07 12:53:00
9:00 AM,57.2,53.6,88,29.99,10.0,North,4.6,-,N/A,,Overcast,10,2013-05-07 13:00:00
9:53 AM,59.0,55.0,87,29.99,10.0,NE,6.9,-,N/A,,Overcast,50,2013-05-07 13:53:00
10:53 AM,62.1,55.9,80,29.98,10.0,North,9.2,-,N/A,,Overcast,360,2013-05-07 14:53:00
11:53 AM,63.0,55.0,75,29.98,10.0,NNE,9.2,-,N/A,,Mostly Cloudy,20,2013-05-07 15:53:00
12:53 PM,64.9,55.0,70,29.97,10.0,ENE,9.2,-,N/A,,Overcast,60,2013-05-07 16:53:00
1:53 PM,68.0,55.0,63,29.96,10.0,NE,5.8,-,N/A,,Mostly Cloudy,40,2013-05-07 17:53:00
2:53 PM,68.0,55.0,63,29.94,10.0,East,5.8,-,N/A,,Overcast,80,2013-05-07 18:53:00
3:53 PM,70.0,55.0,59,29.92,10.0,East,3.5,-,N/A,,Mostly Cloudy,90,2013-05-07 19:53:00
4:53 PM,72.0,54.0,53,29.91,10.0,East,8.1,-,N/A,,Overcast,80,2013-05-07 20:53:00
5:53 PM,63.0,57.9,84,29.93,6.0,NE,8.1,20.7,0.00,Rain,Light Rain,40,2013-05-07 21:53:00
6:53 PM,66.0,57.9,75,29.93,10.0,Calm,Calm,-,0.00,,Mostly Cloudy,0,2013-05-07 22:53:00
7:53 PM,64.9,57.0,75,29.94,10.0,ESE,10.4,-,0.01,,Overcast,110,2013-05-07 23:53:00
8:53 PM,63.0,55.0,75,29.96,10.0,East,4.6,-,N/A,,Scattered Clouds,90,2013-05-08 00:53:00
9:53 PM,61.0,57.0,87,29.97,10.0,Calm,Calm,-,N/A,,Mostly Cloudy,0,2013-05-08 01:53:00
10:53 PM,59.0,55.9,90,29.97,10.0,NNE,5.8,-,N/A,,Mostly Cloudy,30,2013-05-08 02:53:00
11:53 PM,59.0,55.0,87,29.96,10.0,Calm,Calm,-,N/A,,Clear,0,2013-05-08 03:53:00